Regional Weather Roundup
Issued by NWS

Home | Current Version | Previous Version | Graphics & Text | Print | Product List | Glossary On
Versions: 1 2 3 4 5 6 7 8 9 10 11 12 13 14 15 16 17 18 19 20 21 22 23 24 25 26 27 28 29 30 31 32 33 34 35 36 37 38 39 40 41 42 43 44 45 46 47 48 49 50
000
ASUS43 KMPX 160001
RWRMN
WEATHER ROUNDUP FOR MINNESOTA
NATIONAL WEATHER SERVICE TWIN CITIES/CHANHASSEN MN
700 PM CDT TUE APR 15 2014


NOTE: "FAIR" INDICATES FEW OR NO CLOUDS BELOW 12,000 FEET WITH NO
SIGNIFICANT WEATHER AND/OR OBSTRUCTIONS TO VISIBILITY. N/A MEANS
CURRENT SKY AND/OR WEATHER CONDITIONS ARE NOT AVAILABLE.

MNZ060>063-068>070-160100-
   Twin Cities Metro

CITY           SKY/WX    TMP DP  RH WIND       PRES   REMARKS
TWIN CITIES    CLOUDY    35   2  24 SW3       30.05S
6HR MIN TEMP:  29; 6HR MAX TEMP:  36;

ST PAUL        CLOUDY    36   1  22 S7        30.06F
CRYSTAL        CLOUDY    36   2  23 CALM      30.04S
EDEN PRAIRIE   CLOUDY    36   6  28 S7        30.03F
6HR MIN TEMP:  30; 6HR MAX TEMP:  39;

LAKEVILLE      MOCLDY    34   9  35 S5        30.05S WCI  30
SOUTH ST PAUL  MOCLDY    39   4  23 S7        30.05S
LAKE ELMO      FAIR      36   3  25 SE5       30.06S
$$
MNZ001>005-007-008-013>017-022>024-027-028-160100-
   Northwest Minnesota

CITY           SKY/WX    TMP DP  RH WIND       PRES   REMARKS
BEMIDJI        PTSUNNY   31  -3  23 E7        30.00R WCI  24
HALLOCK        CLOUDY    30  10  43 NE3       30.02F
ROSEAU         MOSUNNY   28   7  40 E3        30.04S
WARROAD        SUNNY     25  10  54 E8        30.05S WCI  16
THIEF RVR FALL CLOUDY    28   7  40 E6        30.02S WCI  22
CROOKSTON      CLOUDY    32  10  40 SE5       30.02S WCI  27
FOSSTON        CLOUDY    30   9  40 N7        29.99F WCI  23
DETROIT LAKES  CLOUDY    32   3  29 S7        29.99R WCI  26
MOORHEAD       CLOUDY    34   3  27 SE8       29.99S WCI  27
PARK RAPIDS    PTSUNNY   32   3  29 S7        29.98R WCI  26
$$
MNZ006-009>011-018-025>026-160100-
   North Central Minnesota

CITY           SKY/WX    TMP DP  RH WIND       PRES   REMARKS
BAUDETTE       SUNNY     26  -1  31 N7        30.05R WCI  18
FLAG ISLAND    SUNNY     21   7  53 S5        30.05S WCI  15
INTL FALLS     CLEAR     28  -1  28 CALM      30.03S
6HR MIN TEMP:  22; 6HR MAX TEMP:  29;

WASKISH        MOSUNNY   27   3  36 SW3       30.03R
BIG FORK       CLEAR     30  -4  22 CALM      30.02R
LONGVILLE      MOSUNNY   30  -4  22 CALM      30.01R
GRAND RAPIDS   PTCLDY    28  -4  24 N5        30.01S WCI  23
CRANE LAKE     CLEAR     27   1  33 N3        30.06R
ORR            CLEAR     28  -4  24 CALM      29.99S
COOK           CLEAR     28   0  29 CALM      30.01S
$$
MNZ012-019>021-037-160100-
   Northeast Minnesota

CITY           SKY/WX    TMP DP  RH WIND       PRES   REMARKS
DULUTH         CLEAR     30  -1  26 W3        30.01S
6HR MIN TEMP:  24; 6HR MAX TEMP:  31;

ELY            CLEAR     27  -2  28 CALM      30.01S
HIBBING        CLEAR     31  -2  24 VRB3      30.01S
EVELETH        CLEAR     30   1  29 W3        30.02S
DULUTH HARBOR  CLEAR     32  18  55 CALM      30.07S
TWO HARBORS    CLEAR     28   9  43 SW8       30.01S WCI  20
SILVER BAY     CLEAR     27  12  54 S9G16     30.01R WCI  17
GRAND MARAIS     N/A     29  16  58 SW17      30.05S WCI  17
G MARAIS ARPRT CLEAR     25  -4  28 W5        29.98S WCI  19
$$
MNZ029>031-032-039>041-046>048-054>057-064-160100-
   West Central Minnesota

CITY           SKY/WX    TMP DP  RH WIND       PRES   REMARKS
FERGUS FALLS   CLOUDY    34   1  25 S10       29.97R WCI  26
WHEATON        CLOUDY    37  18  44 E17       29.96F
MORRIS         PTSUNNY   36   9  32 SE14G23   29.95F
ALEXANDRIA     CLOUDY    33   3  28 SE9       29.98S WCI  25
ELBOW LAKE     CLOUDY    32   6  32 SE10      29.98R WCI  24
WADENA         PTSUNNY   30   9  40 SE8       29.98S WCI  23
GLENWOOD       PTSUNNY   34   3  27 SE9       29.99S WCI  26
APPLETON       PTSUNNY   37   9  30 SE16      29.94F
BENSON         CLOUDY    37  10  32 SE12G17   29.97F
ORTONVILLE     PTSUNNY   36   9  32 SE15G23   29.91F
MADISON        PTSUNNY   41  16  36 E20G26    29.92F
WILLMAR        FAIR      37  10  32 SE10      30.01S
$$
MNZ033>034-036-042>043-049>051-058-059-160100-
   Central Minnesota

CITY           SKY/WX    TMP DP  RH WIND       PRES   REMARKS
ST CLOUD       CLOUDY    35   3  26 SE8       30.02F WCI  29
6HR MIN TEMP:  29; 6HR MAX TEMP:  36;

SAUK CENTRE    MOCLDY    33   8  36 SE8       30.00S WCI  25
PAYNESVILLE    CLOUDY    33   4  29 CALM      30.01S
AITKIN         PTCLDY    34  -6  18 SE5       30.02R WCI  30
PINE RIVER     MOSUNNY   30   7  37 SE9       30.04R WCI  22
BRAINERD       SUNNY     36   2  23 S9        30.01S
STAPLES        MOSUNNY   30   1  29 S5        29.99F WCI  25
LONG PRAIRIE   FAIR      32   9  37 SE7       30.00S WCI  26
LITTLE FALLS   MOSUNNY   32   3  29 SE5       30.02S WCI  27
LITCHFIELD     PTSUNNY   36   5  27 SE6       30.02S
BUFFALO        CLOUDY    34   5  29 SE3       30.04F
MAPLE LAKE     CLOUDY    35   9  33 CALM      30.03F
$$
MNZ037-044-045-052-053-160100-
   East Central Minnesota

CITY           SKY/WX    TMP DP  RH WIND       PRES   REMARKS
PRINCETON      PTCLDY    36   0  21 CALM      30.04S
MORA           PTCLDY    32   5  32 SW5       30.06R WCI  27
CAMBRIDGE      PTCLDY    36  14  41 CALM      30.02S
RUSH CITY      PTCLDY    33   2  26 CALM      30.05S
MOOSE LAKE     PTCLDY    32   1  27 CALM      30.02S
HINCKLEY       FAIR      32   9  37 S3        30.05R
CLOQUET        PTCLDY   N/A N/A N/A S3        30.02S
MCGREGOR       PTCLDY    32   3  29 S5        30.03S WCI  27
$$
MNZ071>073-080-081-089-090-097-098-160100-
   Southwest Minnesota

CITY           SKY/WX    TMP DP  RH WIND       PRES   REMARKS
MONTEVIDEO     PTSUNNY   37  12  35 SE15      29.96F
GRANITE FALLS  CLOUDY    38  10  30 E14G20    29.98S
CANBY          CLOUDY    43  16  33 S10       29.92S
MARSHALL       MOSUNNY   43  16  33 SE15      29.92S
REDWOOD FALLS  CLOUDY    38  11  32 E12       29.98F
OLIVIA         PTSUNNY   36  12  38 SE7       29.99S
PIPESTONE      MOSUNNY   43  19  39 S16G22    29.87F
WINDOM         SUNNY     39  18  41 SE12      29.96S
WORTHINGTON    MOSUNNY   41  19  42 SE16G22   29.94S
JACKSON        CLOUDY    39  19  45 SE14      29.98R
TRACY          MOSUNNY   42  17  36 S14G20    29.94S
SLAYTON        MOSUNNY   40  20  44 SE17      29.92F
$$
MNZ065>067-074>077-082>085-091>093-160100-
   South Central Minnesota

CITY           SKY/WX    TMP DP  RH WIND       PRES   REMARKS
MANKATO        PTCLDY    36   7  30 S9        30.04S
NEW ULM        CLOUDY    37  12  35 SE7       30.01S
ST JAMES       CLOUDY    39  16  38 SE10      30.01S
FAIRMONT       MOSUNNY   37  16  41 S14       30.01S
GLENCOE        CLOUDY    37   5  26 CALM      30.02S
FARIBAULT      CLOUDY    39   1  20 SE5       30.05S
OWATONNA       MOCLDY    36  12  38 S5        30.05S
WASECA         MOCLDY    37  18  44 S7        30.05S
ALBERT LEA     MOCLDY    36  10  35 S7        30.03F
$$
MNZ078>079-086>088-094>096-160100-
   Southeast Minnesota

CITY           SKY/WX    TMP DP  RH WIND       PRES   REMARKS
ROCHESTER      CLOUDY    33  16  49 S8        30.05F WCI  26
6HR MIN TEMP:  29; 6HR MAX TEMP:  36;

RED WING       MOCLDY    36   9  32 S6        30.07R
STANTON        CLOUDY    36   8  30 SW5       30.04S
DODGE CENTER   CLOUDY    36  10  35 S7        30.04F
WINONA         PTCLDY    36  14  41 SW3       30.10R
AUSTIN         MOCLDY    34  12  40 S8        30.05S WCI  27
PRESTON        CLOUDY    34  15  45 SW5       30.07S WCI  30
$$
ABBREVIATIONS USED IN REMARKS
   TC - TEMPERATURES IN CELSIUS
  WCI - WIND CHILL INDEX
   HX - HEAT INDEX
  VSB - VISIBILITY
$$



USA.gov is the U.S. government's official web portal to all federal, state and local government web resources and services.